"TOA5","AWS1","CR1000","7964","CR1000.Std.14","CPU:AWS1_114.CR1","64363","TBL110"
"TIMESTAMP","RECORD","Wind_spd_WVc(1)","Wind_spd_WVc(2)","Air_Temp_Avg","Humidity_Avg","SW_upper_Wm2_Avg","Rain_Tot","Press_Avg","Issui_Tot","Depth_cm","SR50A_Raw","Quality","Ground_Temp_Avg(1)","Ground_Temp_Avg(2)","SW_lower_Wm2_Avg","Albedo_Avg","SWC_per(1)","SWC_per(2)","Period(1)","Period(2)"
"TS","RN","","","","","","","","","","","","","","","","","","",""
"","","WVc","WVc","Avg","Avg","Avg","Tot","Avg","Tot","Smp","Smp","Smp","Avg","Avg","Avg","Avg","Smp","Smp","Smp","Smp"
"2017-05-10 00:00:00",287341,0.175,161.8,7.592,100,0,0.5,866.4896,0,-4.563,3.182,194,9.73,8.65,0.3070577,0,51.05,58.85,33.56,35.41
"2017-05-10 00:10:00",287342,0.246,341.5,7.533,100,0,0,866.4785,0,-5.12,3.187,199,9.66,8.65,0.3639203,0,51.05,58.85,33.56,35.41
"2017-05-10 00:20:00",287343,0.197,73.37,7.543,100,0,0.5,866.361,0,-4.539,3.182,209,9.68,8.65,0.4511095,0,51.1,58.85,33.57,35.41
"2017-05-10 00:30:00",287344,0.285,194.6,7.501,100,0,0,866.1274,0,-4.563,3.182,194,9.68,8.64,0.5155538,0,51.21,58.85,33.6,35.41
"2017-05-10 00:40:00",287345,0.428,115.6,7.5,100,0,0.5,865.6315,0,-4.615,3.183,201,9.66,8.64,0.5155538,0,51.21,58.91,33.6,35.43
"2017-05-10 00:50:00",287346,0.213,329.5,7.439,100,0,0,865.4352,0,-4.615,3.183,194,9.6,8.65,0.4511095,0,51.33,58.91,33.62,35.43
"2017-05-10 01:00:00",287347,0.289,13.9,7.527,100,0,0,865.3256,0,-4.919,3.186,195,9.6,8.66,0.4245737,0,51.44,58.91,33.65,35.43
"2017-05-10 01:10:00",287348,0.479,109.7,7.415,100,0,0,864.7586,0,-4.768,3.185,181,9.6,8.64,0.4511095,0,51.49,58.97,33.66,35.44
"2017-05-10 01:20:00",287349,0.336,353.5,7.477,100,0,0,864.7791,0,-4.665,3.183,193,9.6,8.63,0.4586912,0,51.6,58.97,33.69,35.44
"2017-05-10 01:30:00",287350,0.198,323.1,7.493,100,0,0,864.9149,0,-4.919,3.186,188,9.55,8.65,0.2994761,0,51.66,59.03,33.7,35.45
"2017-05-10 01:40:00",287351,0.513,315.2,7.371,100,0,0,864.6395,0,-4.869,3.186,180,9.49,8.65,0.2160777,0,51.77,58.97,33.73,35.44
"2017-05-10 01:50:00",287352,0.233,55.41,7.36,100,0,0,864.5884,0,-4.869,3.186,180,9.47,8.62,0.2350319,0,51.77,59.03,33.73,35.45
"2017-05-10 02:00:00",287353,0.392,77.98,7.332,100,0,0,864.6227,0,-4.565,3.183,192,9.51,8.64,0.3752928,0,51.77,59.03,33.73,35.45
"2017-05-10 02:10:00",287354,0.357,119.6,7.355,100,0,0,864.4122,0,-4.792,3.185,184,9.51,8.64,0.4549004,0,51.82,59.08,33.75,35.47
"2017-05-10 02:20:00",287355,0.04,108.6,7.352,100,0,0.5,864.3783,0,-4.565,3.183,195,9.51,8.66,0.4549004,0,51.82,59.14,33.75,35.48
"2017-05-10 02:30:00",287356,0.039,36.85,7.391,100,0,0,864.4694,0,-4.311,3.18,194,9.5,8.64,0.4549004,0,51.82,59.2,33.75,35.5
"2017-05-10 02:40:00",287357,0.156,30.73,7.469,100,0,0.5,864.6235,0,-4.612,3.182,189,9.44,8.64,0.4435278,0,51.82,59.2,33.75,35.5
"2017-05-10 02:50:00",287358,0,0,7.483,100,0,0,864.6373,0,-4.919,3.186,195,9.42,8.64,0.2653585,0,51.82,59.26,33.75,35.51
"2017-05-10 03:00:00",287359,0.308,121.2,7.317,100,0,0.5,864.4238,0,-4.617,3.184,190,9.42,8.64,0.1478426,0,51.88,59.2,33.76,35.5
"2017-05-10 03:10:00",287360,0.375,110.5,7.239,100,0,0,864.3047,0,-4.617,3.184,197,9.42,8.64,0.2729402,0,51.99,59.26,33.79,35.51
"2017-05-10 03:20:00",287361,0.608,293.8,7.342,100,0,0.5,864.3386,0,-4.768,3.185,196,9.42,8.64,0.3639203,0,52.1,59.32,33.81,35.52
"2017-05-10 03:30:00",287362,0.035,212.1,7.408,100,0,0.5,864.218,0,-4.362,3.181,195,9.4,8.64,0.231241,0,52.21,59.32,33.84,35.52
"2017-05-10 03:40:00",287363,0,0,7.335,100,0,0.5,864.0704,0,-4.666,3.184,195,9.33,8.64,0.09477091,0,52.32,59.38,33.87,35.54
"2017-05-10 03:50:00",287364,0,0,7.348,100,0,0.5,863.9946,0,-4.666,3.184,195,9.31,8.64,0.163006,0,52.55,59.44,33.92,35.55
"2017-05-10 04:00:00",287365,0,0,7.353,100,0,1,864.1399,0,-4.642,3.184,192,9.33,8.64,0.2009143,0,52.77,59.5,33.98,35.56
"2017-05-10 04:10:00",287366,0.352,112.2,7.252,100,0,0,863.9799,0,-5.276,3.191,196,9.34,8.64,0.1592151,0,53,59.61,34.03,35.59
"2017-05-10 04:20:00",287367,0.09,272.2,7.355,100,0.01179488,0.5,864.2495,0,-4.894,3.186,197,9.34,8.64,0.3184303,0.096,53.11,59.79,34.06,35.63
"2017-05-10 04:30:00",287368,0.285,140.6,7.33,100,0,0,863.9609,0,-5.175,3.19,190,9.33,8.64,0.06444422,0,53.11,59.91,34.06,35.66
"2017-05-10 04:40:00",287369,0.111,81.3,7.239,100,0,0.5,863.8682,0,-4.464,3.183,201,9.3,8.64,0.106142,0,53.11,60.09,34.06,35.7
"2017-05-10 04:50:00",287370,0.279,349.3,7.337,100,0.180853,0.5,863.9398,0,-4.717,3.185,208,9.25,8.64,0.2350293,0.691,53.11,60.21,34.06,35.73
"2017-05-10 05:00:00",287371,0,0,7.353,100,0.7548693,0.5,863.8598,0,-4.869,3.186,198,9.25,8.64,0.2312401,0.311,53.22,60.33,34.08,35.75
"2017-05-10 05:10:00",287372,0.208,10.99,7.328,100,4.48598,0.5,863.8514,0,-4.869,3.186,204,9.25,8.64,0.7240487,0.162,53.33,60.5,34.11,35.79
"2017-05-10 05:20:00",287373,0.149,140.7,7.391,100,7.163422,0,863.8029,0,-4.819,3.186,203,9.19,8.64,1.076597,0.151,53.33,60.8,34.11,35.86
"2017-05-10 05:30:00",287374,0.251,145.7,7.356,100,11.30736,0,863.7697,0,-4.666,3.184,194,9.16,8.64,1.520126,0.134,53.33,61.1,34.11,35.93
"2017-05-10 05:40:00",287375,0.451,121.7,7.447,100,34.42533,0,863.5999,0,-4.969,3.186,198,9.13,8.64,4.738545,0.137,53.33,61.34,34.11,35.98
"2017-05-10 05:50:00",287376,0.376,5.671,7.551,100,21.59249,0,863.6226,0,-4.917,3.185,194,9.12,8.64,2.8545,0.132,53.33,61.4,34.11,36
"2017-05-10 06:00:00",287377,0.182,86.6,7.706,100,17.47608,0,863.6115,0,-4.841,3.184,194,9.13,8.64,2.282083,0.13,53.33,61.46,34.11,36.01
"2017-05-10 06:10:00",287378,0.23,145.6,7.8,100,36.4737,0,863.4933,0,-4.965,3.184,193,9.16,8.64,4.837107,0.133,53.28,61.46,34.1,36.01
"2017-05-10 06:20:00",287379,0.274,95,7.932,100,40.48003,0,863.5375,0,-4.914,3.183,194,9.16,8.64,5.106256,0.124,53.28,61.52,34.1,36.02
"2017-05-10 06:30:00",287380,0.346,108.9,7.998,100,47.13234,0,863.5881,0,-4.963,3.183,193,9.16,8.64,6.129783,0.13,53.28,61.52,34.1,36.02
"2017-05-10 06:40:00",287381,0.17,91.1,8.09,100,50.42664,0,863.6344,0,-5.008,3.183,193,9.16,8.64,6.38751,0.126,53.16,61.52,34.07,36.02
"2017-05-10 06:50:00",287382,0.02,359.9,8.21,100,74.99406,0,863.6239,0,-4.895,3.181,198,9.13,8.62,9.616627,0.128,53.16,61.46,34.07,36.01
"2017-05-10 07:00:00",287383,0.135,32.15,8.33,100,58.77522,0,863.6955,0,-4.711,3.179,193,9.07,8.61,7.288968,0.124,53.11,61.52,34.06,36.02
"2017-05-10 07:10:00",287384,0.153,137.8,8.33,100,52.3915,0,863.7145,0,-4.774,3.18,193,9.01,8.6,6.268939,0.119,53.11,61.46,34.06,36.01
"2017-05-10 07:20:00",287385,0.105,104.7,8.3,100,57.17518,0,863.8177,0,-4.816,3.18,194,8.96,8.58,6.871073,0.12,53.11,61.4,34.06,36
"2017-05-10 07:30:00",287386,0.404,114,8.37,100,115.8235,0,863.6407,0,-4.808,3.179,192,8.94,8.56,15.01492,0.129,53.05,61.4,34.04,36
"2017-05-10 07:40:00",287387,0.126,106,8.6,100,84.05096,0,863.7271,0,-4.802,3.178,194,8.94,8.56,10.36083,0.123,53.05,61.4,34.04,36
"2017-05-10 07:50:00",287388,0.22,128.2,8.58,100,113.6843,0,863.6449,0,-4.497,3.175,188,8.92,8.55,14.44584,0.127,53.05,61.4,34.04,36
"2017-05-10 08:00:00",287389,0.042,33.22,8.82,100,96.63023,0,863.6071,0,-4.442,3.173,195,8.94,8.55,12.03941,0.124,53,61.34,34.03,35.98
"2017-05-10 08:10:00",287390,0.191,112.7,9.08,100,102.5255,0,863.4153,0,-4.464,3.172,216,8.97,8.55,12.85035,0.125,52.94,61.34,34.02,35.98
"2017-05-10 08:20:00",287391,0.064,36.98,9.28,100,91.99229,0,863.4659,0,-4.843,3.175,195,9.02,8.55,11.29663,0.123,52.94,61.34,34.02,35.98
"2017-05-10 08:30:00",287392,0.242,9.09,9.28,100,95.01076,0,863.5649,0,-4.843,3.175,193,9.06,8.55,11.74001,0.123,52.94,61.34,34.02,35.98
"2017-05-10 08:40:00",287393,0.091,111.5,9.36,100,146.0416,0,863.447,0,-4.433,3.17,228,9.04,8.55,18.97046,0.13,52.88,61.28,34,35.97
"2017-05-10 08:50:00",287394,0.08,93.2,9.57,100,123.0062,0,863.3669,0,-4.662,3.172,194,9.03,8.55,15.15439,0.123,52.88,61.34,34,35.98
"2017-05-10 09:00:00",287395,0.45,137.5,9.62,100,194.6278,0,863.3627,0,-4.532,3.17,189,9.03,8.55,25.44679,0.13,52.83,61.28,33.99,35.97
"2017-05-10 09:10:00",287396,0.387,143.3,9.73,100,237.3225,0,863.3627,0,-4.578,3.169,198,9,8.55,30.96816,0.13,52.83,61.28,33.99,35.97
"2017-05-10 09:20:00",287397,0.089,47.56,10.07,100,102.9735,0,863.3627,0,-4.727,3.169,200,8.99,8.55,12.07349,0.116,52.83,61.28,33.99,35.97
"2017-05-10 09:30:00",287398,0.024,7.533,10.11,100,121.3712,0,863.3859,0,-4.677,3.169,193,8.99,8.55,15.17712,0.125,52.77,61.22,33.98,35.96
"2017-05-10 09:40:00",287399,0.07,45.71,10.13,100,146.8434,0,863.3627,0,-4.19,3.163,180,9.03,8.55,18.51571,0.126,52.77,61.22,33.98,35.96
"2017-05-10 09:50:00",287400,0.184,103.7,10.26,100,152.3025,0,863.3627,0,-4.875,3.169,193,9.13,8.54,19.16373,0.126,52.77,61.22,33.98,35.96
"2017-05-10 10:00:00",287401,0.139,20.15,10.22,100,118.5296,0,863.4259,0,-4.832,3.171,195,9.11,8.5,14.5708,0.123,52.77,61.16,33.98,35.94
"2017-05-10 10:10:00",287402,0.215,7.75,9.87,100,116.9339,0,863.4554,0,-4.677,3.169,192,9.1,8.47,14.19563,0.121,52.77,61.16,33.98,35.94
"2017-05-10 10:20:00",287403,0.51,128,10.15,100,230.2716,0,863.4217,0,-5.335,3.174,187,9.09,8.46,30.42246,0.131,52.72,61.16,33.96,35.94
"2017-05-10 10:30:00",287404,0.375,165.2,10.64,100,405.3226,0,863.3775,0,-5.502,3.172,199,9.16,8.47,52.51929,0.126,52.72,61.16,33.96,35.94
"2017-05-10 10:40:00",287405,0.269,32,10.87,100,129.7702,0,863.5143,0,-4.816,3.166,192,9.19,8.47,15.24534,0.117,52.72,61.1,33.96,35.93
"2017-05-10 10:50:00",287406,0.258,341.9,10.66,100,83.66795,0,863.548,0,-4.872,3.168,192,9.18,8.45,9.65576,0.115,52.66,61.1,33.95,35.93
"2017-05-10 11:00:00",287407,0.219,314.5,10.55,100,94.03604,0,863.5901,0,-4.77,3.167,228,9.16,8.41,11.308,0.12,52.66,61.1,33.95,35.93
"2017-05-10 11:10:00",287408,0.169,10.02,10.59,100,102.9617,0,863.5523,0,-4.745,3.167,194,9.18,8.4,12.59645,0.122,52.66,61.04,33.95,35.92
"2017-05-10 11:20:00",287409,0.187,250.4,10.54,100,82.67358,0,863.5859,0,-4.819,3.167,200,9.25,8.38,9.515546,0.114,52.66,61.04,33.95,35.92
"2017-05-10 11:30:00",287410,0.177,72.87,10.68,100,95.07364,0.5,863.4133,0,-4.105,3.16,228,9.29,8.38,11.44063,0.117,52.66,61.04,33.95,35.92
"2017-05-10 11:40:00",287411,0.385,121.5,10.94,100,384.1934,0,863.1942,0,-4.446,3.159,181,9.27,8.39,51.13611,0.133,52.6,60.98,33.94,35.9
"2017-05-10 11:50:00",287412,0.431,104.7,11.48,100,271.3824,0,863.11,0,-4.238,3.156,226,9.31,8.42,34.58717,0.127,52.6,60.98,33.94,35.9
"2017-05-10 12:00:00",287413,0.698,128.7,11.51,100,439.4375,0,862.9499,0,-4.259,3.155,189,9.35,8.43,60.2007,0.137,52.55,60.98,33.92,35.9
"2017-05-10 12:10:00",287414,0.768,134.4,11.66,100,375.197,0,862.893,0,-3.961,3.154,208,9.33,8.42,51.21569,0.136,52.6,60.98,33.94,35.9
"2017-05-10 12:20:00",287415,0.959,151.9,11.76,100,359.4486,0,862.8353,0,-4.278,3.155,217,9.3,8.42,49.93052,0.139,52.55,61.04,33.92,35.92
"2017-05-10 12:30:00",287416,0.713,137.1,12.1,100,352.8732,0,862.6267,0,-4.233,3.153,203,9.36,8.42,49.29494,0.139,52.55,60.98,33.92,35.9
"2017-05-10 12:40:00",287417,0.774,140.8,12.07,100,312.7549,0,862.5725,0,-3.963,3.15,228,9.38,8.38,44.48232,0.142,52.55,60.98,33.92,35.9
"2017-05-10 12:50:00",287418,0.264,121.1,12.25,100,212.1975,0,862.4711,0,-4.558,3.154,192,9.34,8.36,30.00236,0.141,52.49,60.92,33.91,35.89
"2017-05-10 13:00:00",287419,0.411,97,12.56,100,336.7675,0,862.2753,0,-4.443,3.152,207,9.4,8.36,49.54912,0.146,52.49,60.92,33.91,35.89
"2017-05-10 13:10:00",287420,0.467,91.2,12.93,99.7,351.2554,0,862.2529,0,-5.401,3.159,206,9.4,8.34,51.59332,0.146,52.49,60.92,33.91,35.89
"2017-05-10 13:20:00",287421,0.403,336.1,12.66,99.9,210.0743,0,862.2325,0,-5.037,3.16,196,9.44,8.33,30.22666,0.143,52.55,60.92,33.92,35.89
"2017-05-10 13:30:00",287422,0.364,284.1,12.07,100,115.2716,0,862.1143,0,-5.199,3.164,192,9.49,8.33,15.60005,0.135,52.49,60.92,33.91,35.89
"2017-05-10 13:40:00",287423,0.234,261.8,11.89,100,101.6655,0,862.0132,0,-4.693,3.16,188,9.54,8.33,13.91804,0.134,52.49,60.92,33.91,35.89
"2017-05-10 13:50:00",287424,0.125,311.1,11.94,100,172.2725,0,862.009,0,-5.882,3.169,180,9.55,8.32,24.67667,0.141,52.49,60.86,33.91,35.88
"2017-05-10 14:00:00",287425,0.133,331.7,11.93,100,74.24206,0,861.8932,0,-4.848,3.161,191,9.59,8.32,9.368439,0.123,52.49,60.86,33.91,35.88
"2017-05-10 14:10:00",287426,0.163,27.34,12.11,100,323.4764,0,861.7563,0,-4.204,3.152,206,9.6,8.34,47.06728,0.143,52.44,60.86,33.89,35.88
"2017-05-10 14:20:00",287427,0.373,114.4,12.47,100,138.9325,0,861.7612,0,-4.734,3.156,182,9.67,8.35,19.34784,0.139,52.44,60.86,33.89,35.88
"2017-05-10 14:30:00",287428,0.485,24.14,12.42,100,150.9372,0,861.7327,0,-5.024,3.162,182,9.65,8.34,21.87434,0.145,52.44,60.86,33.89,35.88
"2017-05-10 14:40:00",287429,0.327,82.1,12.04,100,93.87025,0,861.5234,0,-4.898,3.16,187,9.71,8.33,12.82375,0.135,52.38,60.8,33.88,35.86
"2017-05-10 14:50:00",287430,0.405,7.016,11.9,100,119.7688,0,861.3632,0,-5.394,3.166,178,9.75,8.35,17.24944,0.143,52.38,60.8,33.88,35.86
"2017-05-10 15:00:00",287431,0.219,343.4,11.78,100,156.1411,0,861.2817,0,-5.22,3.164,183,9.8,8.36,22.70597,0.145,52.38,60.8,33.88,35.86
"2017-05-10 15:10:00",287432,0.319,45.36,11.91,100,83.02682,0,861.2982,0,-5.049,3.163,187,9.77,8.37,11.18834,0.132,52.38,60.8,33.88,35.86
"2017-05-10 15:20:00",287433,0.209,3.401,11.74,100,79.94998,0,861.2868,0,-5.135,3.164,174,9.85,8.38,11.37833,0.142,52.38,60.8,33.88,35.86
"2017-05-10 15:30:00",287434,0.079,245.2,11.81,100,41.79442,0,861.0892,0,-5.454,3.168,170,9.88,8.4,5.308616,0.121,52.32,60.74,33.87,35.85
"2017-05-10 15:40:00",287435,0.169,277.3,11.45,100,16.90732,0,861.0591,0,-6.052,3.176,180,9.96,8.43,1.845425,0.109,52.32,60.74,33.87,35.85
"2017-05-10 15:50:00",287436,0.211,337.5,11.28,100,17.79969,0,861.2507,0,-5.543,3.171,186,9.96,8.44,2.106919,0.118,52.32,60.74,33.87,35.85
"2017-05-10 16:00:00",287437,0.246,49.09,11.22,100,21.04618,0.5,861.3333,0,-5.749,3.173,190,9.97,8.45,2.595777,0.122,52.32,60.74,33.87,35.85
"2017-05-10 16:10:00",287438,0.311,92.1,11.23,100,74.61565,0.5,861.334,0,-5.061,3.166,210,10.01,8.45,9.757965,0.129,52.32,60.68,33.87,35.83
"2017-05-10 16:20:00",287439,0.739,147.7,11.09,100,44.87974,0,861.2858,0,-5.248,3.17,198,9.98,8.5,5.544078,0.124,52.32,60.68,33.87,35.83
"2017-05-10 16:30:00",287440,0.725,124.2,10.86,100,64.25615,0,861.0979,0,-5.326,3.171,202,9.99,8.52,8.405195,0.13,52.32,60.68,33.87,35.83
"2017-05-10 16:40:00",287441,0.715,88,10.87,100,49.1757,0,861.1973,0,-5.248,3.17,196,10.02,8.52,6.324743,0.129,52.32,60.68,33.87,35.83
"2017-05-10 16:50:00",287442,0.436,111.1,10.86,100,31.87853,0,861.2859,0,-5.325,3.171,197,10.04,8.52,4.255654,0.134,52.32,60.68,33.87,35.83
"2017-05-10 17:00:00",287443,0.8,131.4,10.75,100,28.9151,0,861.1764,0,-5.304,3.172,187,10.06,8.52,3.948702,0.137,52.27,60.68,33.85,35.83
"2017-05-10 17:10:00",287444,0.579,134.4,10.65,100,15.92944,0,861.2016,0,-5.125,3.17,202,10.07,8.52,2.307831,0.146,52.32,60.68,33.87,35.83
"2017-05-10 17:20:00",287445,0.52,112.5,10.59,100,10.31306,0,861.2291,0,-5.227,3.171,200,10.07,8.51,1.656029,0.166,52.32,60.68,33.87,35.83
"2017-05-10 17:30:00",287446,0.607,109.9,10.56,100,7.978476,0,861.1573,0,-5.177,3.171,189,10.07,8.51,1.375603,0.175,52.32,60.68,33.87,35.83
"2017-05-10 17:40:00",287447,0.504,118.7,10.47,100,10.14406,0,861.0837,0,-4.9,3.169,192,10.07,8.51,1.561291,0.162,52.32,60.68,33.87,35.83
"2017-05-10 17:50:00",287448,0.417,95.6,10.47,100,7.746589,0,861.0858,0,-5.103,3.171,194,10.07,8.51,1.242969,0.169,52.32,60.68,33.87,35.83
"2017-05-10 18:00:00",287449,0.585,120,10.37,100,2.028026,0,861.0879,0,-5.258,3.173,179,10.07,8.49,0.5760102,0.335,52.32,60.68,33.87,35.83
"2017-05-10 18:10:00",287450,0.435,110.1,10.36,100,1.049386,0,861.0879,0,-5.156,3.172,192,10.07,8.48,0.4547449,0.456,52.32,60.62,33.87,35.82
"2017-05-10 18:20:00",287451,0.238,10.12,10.36,100,1.505298,0,861.0731,0,-5.156,3.172,207,10.07,8.47,0.5229567,0.425,52.32,60.68,33.87,35.83
"2017-05-10 18:30:00",287452,0.373,123.3,10.33,100,0.4401917,0,860.9404,0,-4.597,3.167,215,10.07,8.47,0.420639,0.574,52.32,60.68,33.87,35.83
"2017-05-10 18:40:00",287453,0.197,34.21,10.32,100,0.01965142,0.5,861.0879,0,-4.928,3.17,204,10.08,8.47,0.420639,0.161,52.27,60.68,33.85,35.83
"2017-05-10 18:50:00",287454,0.224,83,10.29,100,0.01572113,0,861.1026,0,-5.005,3.171,202,10.09,8.47,0.2008457,0.064,52.27,60.68,33.85,35.83
"2017-05-10 19:00:00",287455,0.292,34.73,10.26,100,0,0,861.2142,0,-4.98,3.171,210,10.08,8.49,0.06063266,0,52.32,60.62,33.87,35.82
"2017-05-10 19:10:00",287456,0.231,111.2,10.23,100,0,0,861.328,0,-4.829,3.17,216,10.06,8.55,0.04926403,0,52.32,60.62,33.87,35.82
"2017-05-10 19:20:00",287457,0.459,130.9,10.16,100,0,0,861.1553,0,-4.93,3.171,208,10.02,8.61,0.4395868,0,52.32,60.62,33.87,35.82
"2017-05-10 19:30:00",287458,0.272,137.9,10.1,100,0,0,861.0879,0,-5.06,3.173,195,10.02,8.63,0.2917947,0,52.32,60.62,33.87,35.82
"2017-05-10 19:40:00",287459,0.409,148.5,10.02,100,0,0,861.092,0,-5.06,3.173,194,9.99,8.64,0.4547449,0,52.27,60.62,33.85,35.82
"2017-05-10 19:50:00",287460,0.343,104.7,10.03,100,0,0,861.2037,0,-4.906,3.171,206,9.96,8.64,0.4547449,0,52.32,60.62,33.87,35.82
"2017-05-10 20:00:00",287461,0.225,128,10.05,100,0,0.5,861.1132,0,-3.863,3.161,265,9.98,8.64,0.4547449,0,52.32,60.62,33.87,35.82
"2017-05-10 20:10:00",287462,0.308,159.1,10.03,100,0,0,861.1364,0,-3.557,3.158,265,9.98,8.64,0.4547449,0,52.32,60.68,33.87,35.83
"2017-05-10 20:20:00",287463,0.205,129.2,10.05,100,0,0,861.3069,0,-3.964,3.162,247,9.99,8.63,0.4547449,0,52.38,60.62,33.88,35.82
"2017-05-10 20:30:00",287464,0.408,130.2,10.02,100,0,0.5,861.3133,0,-4.221,3.165,212,10,8.62,0.4547449,0,52.32,60.62,33.87,35.82
"2017-05-10 20:40:00",287465,0.265,88.6,10.02,100,0,0.5,861.3407,0,-4.425,3.167,202,9.97,8.6,0.4547449,0,52.38,60.68,33.88,35.83
"2017-05-10 20:50:00",287466,0.243,79.36,10.04,100,0,0,861.3027,0,-4.425,3.167,232,9.94,8.6,0.4547449,0,52.44,60.68,33.89,35.83
"2017-05-10 21:00:00",287467,0.239,120.4,10,100,0,1,861.3386,0,-4.196,3.165,180,9.88,8.59,0.4547449,0,52.49,60.68,33.91,35.83
"2017-05-10 21:10:00",287468,0.37,145,9.96,100,0,0,861.3386,0,-3.813,3.161,193,9.85,8.58,0.3941123,0,52.6,60.68,33.94,35.83
"2017-05-10 21:20:00",287469,0.192,16.18,9.96,100,0,0,861.3301,0,-4.095,3.164,184,9.87,8.59,0.3107423,0,52.72,60.74,33.96,35.85
"2017-05-10 21:30:00",287470,0.115,12.44,10.02,100,0,0,861.3407,0,-4.27,3.165,189,9.88,8.57,0.2160038,0,52.72,60.8,33.96,35.86
"2017-05-10 21:40:00",287471,0.093,142.2,10.01,100,0,0,861.3365,0,-4.119,3.164,197,9.89,8.58,0.03789541,0,52.77,60.86,33.98,35.88
"2017-05-10 21:50:00",287472,0.441,251.3,9.92,100,0,0,861.3407,0,-4.119,3.164,204,9.89,8.6,0,0,52.77,60.98,33.98,35.9
"2017-05-10 22:00:00",287473,0.025,154.7,9.98,100,0,0,861.3407,0,-4.095,3.164,207,9.9,8.63,0,0,52.83,60.98,33.99,35.9
"2017-05-10 22:10:00",287474,0.003,26.13,10,100,0,0,861.3407,0,-4.168,3.164,208,9.92,8.7,0,0,52.83,61.04,33.99,35.92
"2017-05-10 22:20:00",287475,0,0,10,100,0,0.5,861.3491,0,-4.143,3.164,208,9.9,8.72,0,0,52.83,61.04,33.99,35.92
"2017-05-10 22:30:00",287476,0.004,290.5,9.95,100,0,0,861.3407,0,-4.119,3.164,209,9.85,8.72,0,0,52.88,61.1,34,35.93
"2017-05-10 22:40:00",287477,0.06,250.1,9.88,100,0,0,861.3407,0,-3.866,3.162,219,9.83,8.7,0,0,52.88,61.1,34,35.93
"2017-05-10 22:50:00",287478,0.099,270,9.82,100,0,0,861.3407,0,-3.918,3.163,214,9.8,8.69,0,0,52.83,61.16,33.99,35.94
"2017-05-10 23:00:00",287479,0.055,240.1,9.71,100,0,0,861.2374,0,-3.971,3.164,214,9.8,8.7,0,0,52.83,61.16,33.99,35.94
"2017-05-10 23:10:00",287480,0.106,221.7,9.66,100,0,0,861.1089,0,-3.824,3.164,221,9.83,8.69,0,0,52.83,61.16,33.99,35.94
"2017-05-10 23:20:00",287481,0.046,278.5,9.5,100,0,0,861.3049,0,-3.872,3.164,221,9.85,8.69,0,0,52.83,61.16,33.99,35.94
"2017-05-10 23:30:00",287482,0.136,350.8,9.48,100,0,0,861.3301,0,-4.026,3.166,217,9.85,8.69,0,0,52.77,61.16,33.98,35.94
"2017-05-10 23:40:00",287483,0.067,301.1,9.38,100,0,0,861.2416,0,-3.9,3.165,217,9.82,8.69,0.003789541,0,52.77,61.22,33.98,35.96
"2017-05-10 23:50:00",287484,0.053,283.5,9.39,100,0,0,861.1132,0,-3.493,3.161,246,9.71,8.68,0,0,52.77,61.22,33.98,35.96
